Location: Northern Prairie Star Party
(53.2167°N, 112.5333°W)
Time: 11:20:09
(UTC-06:00)

Amateur Radio Satellites - All Passes

Search period start: 24 June 2017 10:50
Search period end: 25 June 2017 10:50
Location: Northern Prairie Star Party, 53.2167°N, 112.5333°W

Satellite Date Start Highest point End Downlink Frequencies (MHz)
Time Altitude Azimuth
YUBILEINY 24 Jun 11:02:58 11:11:26 52° 271° (W) 11:19:50 435.215
FO-29 24 Jun 11:05:44 11:11:42 48° 264° (W) 11:18:30 435.910
AIST 2D 24 Jun 11:09:16 11:12:29 33° 68° (ENE) 11:15:43 435.315
TIGRISAT 24 Jun 11:13:24 11:17:45 40° 263° (W) 11:22:12 435.000
SEEDS 24 Jun 11:13:58 11:15:56 13° 306° (NW) 11:17:56 437.485
POLYITAN 1 24 Jun 11:24:15 11:28:00 31° 64° (ENE) 11:31:48 437.675
AO-73 24 Jun 11:24:17 11:28:17 32° 296° (WNW) 11:32:11 145.935
CUBEBUG 2 24 Jun 11:24:27 11:27:21 16° 306° (NW) 11:30:12 437.445
PRISM 24 Jun 11:32:25 11:35:32 21° 268° (W) 11:38:40 437.425
QB50P2 24 Jun 11:34:42 11:38:42 40° 66° (ENE) 11:42:44 145.880/145.840
HO-68 24 Jun 11:35:54 11:41:22 24° 315° (NW) 11:46:49 435.675
AO-7 24 Jun 11:46:11 11:49:50 14° 14° (NNE) 11:53:29 .
Oscar 11 24 Jun 11:53:35 11:56:57 22° 300° (WNW) 12:00:18 .
BUGSAT 1 24 Jun 11:56:41 11:59:43 20° 58° (ENE) 12:02:48 437.445
UNISAT 6 24 Jun 11:56:51 11:59:58 18° 272° (W) 12:03:08 437.425
EO-88 24 Jun 11:56:58 12:00:36 64° 288° (WNW) 12:04:12 145.990 - 145.960
ZACube-1 24 Jun 11:59:12 12:02:08 17° 305° (NW) 12:05:02 437.345
EO-79 24 Jun 11:59:28 12:03:40 61° 71° (ENE) 12:07:55 145.935-145.965
UWE-3 24 Jun 12:01:59 12:03:47 12° 310° (NW) 12:05:35 435.000/436.395/437.385
DELFI C3 24 Jun 12:11:54 12:15:32 35° 293° (WNW) 12:19:08 145.870
DUCHIFAT 1 24 Jun 12:15:06 12:19:19 71° 72° (ENE) 12:23:35 145.980
Tancredo 1 24 Jun 12:18:27 12:21:29 63° 175° (S) 12:24:31 437.200
Oscar 19 24 Jun 12:21:11 12:24:54 21° 54° (NE) 12:28:38 437.125/150
ISS 24 Jun 12:21:12 12:24:27 57° 169° (S) 12:27:42 437.550
NANOSAT C BR1 24 Jun 12:22:51 12:27:06 89° 260° (W) 12:31:25 145.865
ESTCUBE 1 24 Jun 12:23:04 12:26:55 27° 94° (E) 12:30:44 437.505/2401.250
LO-87 24 Jun 12:24:06 12:27:35 41° 99° (E) 12:31:02 145.935 - 145.965
AIST 2D 24 Jun 12:42:47 12:45:46 24° 266° (W) 12:48:44 435.315
POLYITAN 1 24 Jun 12:59:43 13:03:43 38° 263° (W) 13:07:46 437.675
SPROUT 24 Jun 13:02:06 13:05:18 20° 90° (E) 13:08:29 437.525
YUBILEINY 24 Jun 13:02:24 13:06:01 13° 295° (WNW) 13:09:39 435.215
Gurwin Techsat 1B 24 Jun 13:03:04 13:07:31 28° 58° (ENE) 13:12:00 435.225
QB50P2 24 Jun 13:10:53 13:14:36 28° 266° (W) 13:18:21 145.880/145.840
PCSat 24 Jun 13:20:39 13:25:42 42° 118° (ESE) 13:30:49 145.827
BUGSAT 1 24 Jun 13:30:35 13:34:42 63° 259° (WSW) 13:38:54 437.445
AO-7 24 Jun 13:33:16 13:39:54 28° 40° (NE) 13:46:33 .
EO-79 24 Jun 13:36:47 13:39:50 19° 270° (W) 13:42:54 145.935-145.965
DUCHIFAT 1 24 Jun 13:52:48 13:55:29 16° 271° (W) 13:58:11 145.980
Tancredo 1 24 Jun 13:53:57 13:56:55 49° 195° (SSW) 13:59:53 437.200
50 SAT 24 Jun 13:55:37 13:58:31 25° 95° (E) 14:01:23 437.505
ISS 24 Jun 13:57:32 14:00:48 61° 189° (S) 14:04:04 437.550
LO-87 24 Jun 13:57:58 14:00:49 22° 297° (WNW) 14:03:40 145.935 - 145.965
Oscar 19 24 Jun 13:58:29 14:03:39 86° 252° (WSW) 14:08:50 437.125/150
ESTCUBE 1 24 Jun 13:59:37 14:03:54 45° 293° (WNW) 14:08:10 437.505/2401.250
NANOSAT C BR1 24 Jun 14:01:35 14:03:29 13° 274° (W) 14:05:24 145.865
VELOX 1 24 Jun 14:06:29 14:10:56 67° 104° (ESE) 14:15:19 145.980
DX 1 24 Jun 14:30:16 14:34:26 42° 99° (E) 14:38:36 434.975-435.025
ITAMSAT 1 24 Jun 14:34:13 14:38:31 27° 57° (ENE) 14:42:51 435.822/435.867
SPROUT 24 Jun 14:37:19 14:41:34 59° 290° (WNW) 14:45:48 437.525
Gurwin Techsat 1B 24 Jun 14:41:54 14:47:09 61° 258° (WSW) 14:52:27 435.225
UKube-1 24 Jun 14:49:58 14:54:10 46° 100° (E) 14:58:19 .
SO-50 24 Jun 14:58:48 15:01:50 18° 114° (ESE) 15:04:52 436.795
PCSat 24 Jun 15:03:48 15:09:05 50° 319° (NW) 15:14:24 145.827
AO-7 24 Jun 15:23:15 15:31:33 75° 64° (ENE) 15:39:55 .
50 SAT 24 Jun 15:28:19 15:31:20 29° 294° (WNW) 15:34:20 437.505
Tancredo 1 24 Jun 15:29:59 15:32:03 17° 214° (SSW) 15:34:08 437.200
MOZHAYETS 4 24 Jun 15:31:44 15:33:19 12° 84° (E) 15:34:53
ISS 24 Jun 15:34:08 15:36:58 26° 208° (SSW) 15:39:47 437.550
ITUPSAT 1 24 Jun 15:38:13 15:41:38 19° 89° (E) 15:45:02 437.325
Oscar 19 24 Jun 15:40:44 15:43:46 16° 274° (W) 15:46:49 437.125/150
VELOX 1 24 Jun 15:43:42 15:46:58 21° 302° (WNW) 15:50:15 145.980
BEESAT 24 Jun 15:48:45 15:52:36 23° 92° (E) 15:56:25 436.000
DX 1 24 Jun 16:06:44 16:10:30 29° 298° (WNW) 16:14:16 434.975-435.025
ITAMSAT 1 24 Jun 16:12:29 16:17:39 64° 257° (WSW) 16:22:52 435.822/435.867
SPROUT 24 Jun 16:15:27 16:16:37 11° 310° (NW) 16:17:46 437.525
DOVE 4 24 Jun 16:22:56 16:24:42 12° 51° (NE) 16:26:31 437.250
UKube-1 24 Jun 16:26:22 16:30:00 27° 299° (WNW) 16:33:38 .
Gurwin Techsat 1B 24 Jun 16:26:50 16:28:14 11° 278° (W) 16:29:38 435.225
SO-50 24 Jun 16:37:10 16:41:43 90° 277° (W) 16:46:17 436.795
PCSat 24 Jun 16:49:30 16:53:43 22° 343° (NNW) 16:57:57 145.827
HO-68 24 Jun 16:52:08 16:55:47 15° 33° (NNE) 16:59:26 435.675
XW-2F 24 Jun 17:04:30 17:06:00 12° 55° (NE) 17:07:31 145.980 - 146.000
MOZHAYETS 4 24 Jun 17:06:41 17:11:19 75° 103° (ESE) 17:15:53
XW-2D 24 Jun 17:07:11 17:09:06 13° 56° (ENE) 17:11:02 145.860 - 145.880
CUTE-I 24 Jun 17:09:10 17:13:06 21° 53° (NE) 17:17:04 437.470
KKS-1 24 Jun 17:13:00 17:15:38 15° 88° (E) 17:18:15 437.445
LilacSat-2 24 Jun 17:13:32 17:15:53 16° 58° (ENE) 17:18:14 437.200
ITUPSAT 1 24 Jun 17:15:11 17:20:00 73° 288° (WNW) 17:24:46 437.325
XW-2B 24 Jun 17:15:42 17:18:00 15° 58° (ENE) 17:20:18 145.730 - 145.750
AO-7 24 Jun 17:17:44 17:25:03 33° 266° (W) 17:32:29 .
BEESAT 24 Jun 17:26:02 17:30:45 58° 291° (WNW) 17:35:27 436.000
XW-2C 24 Jun 17:30:24 17:33:17 21° 61° (ENE) 17:36:11 145.795 - 145.815
CUBESAT XI-V 24 Jun 17:44:40 17:49:01 40° 97° (E) 17:53:20 437.345
STARS 24 Jun 17:46:01 17:48:29 14° 87° (E) 17:50:57 437.465
KAITUO 1B 24 Jun 17:47:10 17:50:12 23° 63° (ENE) 17:53:14 145.475/437.950
ITAMSAT 1 24 Jun 17:56:37 17:58:11 11° 277° (W) 17:59:47 435.822/435.867
DOVE 4 24 Jun 17:57:26 18:01:36 71° 73° (ENE) 18:05:57 437.250
SO-50 24 Jun 18:18:47 18:22:43 28° 336° (NNW) 18:26:40 436.795
NUDT-PHONESAT 24 Jun 18:23:43 18:27:22 50° 70° (ENE) 18:31:02 437.300
PCSat 24 Jun 18:35:02 18:39:01 20° 9° (N) 18:42:59 145.827
HO-68 24 Jun 18:35:07 18:41:46 42° 57° (ENE) 18:48:26 435.675
XW-2F 24 Jun 18:35:41 18:39:30 82° 75° (ENE) 18:43:21 145.980 - 146.000
XW-2D 24 Jun 18:38:53 18:42:44 87° 254° (WSW) 18:46:36 145.860 - 145.880
MOZHAYETS 4 24 Jun 18:44:42 18:48:00 20° 303° (WNW) 18:51:17
LilacSat-2 24 Jun 18:45:50 18:49:42 73° 257° (WSW) 18:53:35 437.200
CUTE-I 24 Jun 18:47:12 18:52:33 86° 253° (WSW) 18:57:57 437.470
XW-2B 24 Jun 18:47:52 18:51:43 73° 257° (WSW) 18:55:34 145.730 - 145.750
KKS-1 24 Jun 18:48:17 18:52:47 83° 286° (WNW) 18:57:17 437.445
ITUPSAT 1 24 Jun 18:54:21 18:57:03 15° 309° (NW) 18:59:45 437.325
SEEDS 24 Jun 18:59:31 19:02:47 22° 61° (ENE) 19:06:04 437.485
XW-2C 24 Jun 19:03:28 19:07:12 49° 260° (W) 19:10:58 145.795 - 145.815
BEESAT 24 Jun 19:05:35 19:07:36 13° 312° (NW) 19:09:37 436.000
CUTE 1.7 + AOD 2 24 Jun 19:14:02 19:18:03 41° 67° (ENE) 19:22:03 437.475
CUBEBUG 2 24 Jun 19:14:34 19:18:31 28° 61° (ENE) 19:22:34 437.445
AO-73 24 Jun 19:15:47 19:17:45 13° 51° (NE) 19:19:43 145.935
KAITUO 1B 24 Jun 19:20:26 19:24:02 41° 262° (W) 19:27:39 145.475/437.950
STARS 24 Jun 19:20:59 19:25:27 86° 285° (WNW) 19:29:55 437.465
CUBESAT XI-V 24 Jun 19:22:14 19:26:20 32° 297° (WNW) 19:30:25 437.345
XW-2A 24 Jun 19:30:13 19:33:29 40° 69° (ENE) 19:36:45 145.665 - 145.685
STRAND 1 24 Jun 19:32:02 19:34:20 13° 84° (E) 19:36:36 437.568
DOVE 4 24 Jun 19:37:19 19:39:54 16° 273° (W) 19:42:32 437.250
Oscar 11 24 Jun 19:43:24 19:46:01 16° 55° (NE) 19:48:37 .
ZACube-1 24 Jun 19:48:08 19:51:44 23° 59° (ENE) 19:55:21 437.345
RS-15 24 Jun 19:49:53 19:54:58 14° 89° (E) 20:00:04 29.354- 29.394
UWE-3 24 Jun 19:50:06 19:54:19 36° 65° (ENE) 19:58:37 435.000/436.395/437.385
AAUSAT CUBESAT 2 24 Jun 19:52:59 19:56:43 34° 66° (ENE) 20:00:28 437.432
NUDT-PHONESAT 24 Jun 19:58:52 20:01:33 18° 269° (W) 20:04:14 437.300
SO-50 24 Jun 20:01:11 20:04:30 20° 1° (N) 20:07:49 436.795
XW-2F 24 Jun 20:12:38 20:14:11 12° 273° (W) 20:15:44 145.980 - 146.000
XW-2D 24 Jun 20:16:42 20:17:33 11° 275° (W) 20:18:23 145.860 - 145.880
PCSat 24 Jun 20:18:51 20:23:56 37° 35° (NE) 20:28:58 145.827
HO-68 24 Jun 20:22:17 20:29:21 57° 258° (WSW) 20:36:28 435.675
KKS-1 24 Jun 20:26:05 20:28:42 15° 307° (NW) 20:31:18 437.445
CUTE-I 24 Jun 20:30:07 20:33:25 16° 274° (W) 20:36:45 437.470
SEEDS 24 Jun 20:34:05 20:38:12 53° 260° (W) 20:42:20 437.485
AO-73 24 Jun 20:48:37 20:53:08 64° 71° (ENE) 20:57:41 145.935
CUTE 1.7 + AOD 2 24 Jun 20:50:23 20:54:01 27° 267° (W) 20:57:40 437.475
CUBEBUG 2 24 Jun 20:50:26 20:54:55 50° 261° (W) 20:59:33 437.445
STARS 24 Jun 20:58:32 21:01:10 16° 306° (NW) 21:03:48 437.465
XW-2A 24 Jun 21:03:52 21:06:24 19° 268° (W) 21:08:57 145.665 - 145.685
EO-88 24 Jun 21:08:05 21:10:31 17° 60° (ENE) 21:12:58 145.990 - 145.960
STRAND 1 24 Jun 21:09:16 21:14:28 72° 104° (ESE) 21:19:37 437.568
Oscar 11 24 Jun 21:17:12 21:21:33 89° 254° (WSW) 21:25:56 .
ZACube-1 24 Jun 21:23:08 21:27:40 61° 259° (W) 21:32:15 437.345
UWE-3 24 Jun 21:26:29 21:30:46 37° 264° (W) 21:35:08 435.000/436.395/437.385
DELFI C3 24 Jun 21:28:16 21:31:52 36° 67° (ENE) 21:35:30 145.870
AAUSAT CUBESAT 2 24 Jun 21:28:32 21:32:13 31° 265° (W) 21:35:55 437.432
O/OREOS (USA 219) 24 Jun 21:38:47 21:40:53 13° 98° (E) 21:42:59 437.305
SO-50 24 Jun 21:42:16 21:46:15 29° 25° (NNE) 21:50:14 436.795
RS-15 24 Jun 21:52:40 22:04:09 51° 114° (ESE) 22:15:44 29.354- 29.394
ESTCUBE 1 24 Jun 21:55:55 21:56:40 10° 48° (NE) 21:57:25 437.505/2401.250
PCSat 24 Jun 22:02:17 22:07:40 64° 237° (WSW) 22:13:01 145.827
UNISAT 6 24 Jun 22:05:38 22:07:12 11° 83° (E) 22:08:44 437.425
BEESAT 2 24 Jun 22:06:57 22:08:45 13° 112° (ESE) 22:10:33 435.950
FO-29 24 Jun 22:07:24 22:13:50 28° 87° (E) 22:20:19 435.910
AO-85 24 Jun 22:12:55 22:16:47 49° 127° (SE) 22:20:36 145.980
YUBILEINY 24 Jun 22:15:00 22:23:05 43° 85° (E) 22:31:13 435.215
HO-68 24 Jun 22:15:40 22:18:45 13° 280° (W) 22:21:51 435.675
AO-73 24 Jun 22:26:23 22:29:47 20° 271° (W) 22:33:12 145.935
EO-88 24 Jun 22:40:12 22:43:50 58° 258° (WSW) 22:47:30 145.990 - 145.960
BEESAT 3 24 Jun 22:44:52 22:48:48 59° 129° (SE) 22:52:48 437.485
STRAND 1 24 Jun 22:49:08 22:53:12 24° 304° (NW) 22:57:15 437.568
M-CUBED/EXP-1 PRIME 24 Jun 22:54:08 22:57:19 28° 103° (ESE) 23:00:41 437.505
NO-84 24 Jun 22:54:58 22:57:55 20° 134° (SE) 23:01:01 435.350 FM
Oscar 11 24 Jun 22:56:17 22:58:21 13° 274° (W) 23:00:25 .
TIGRISAT 24 Jun 22:58:27 23:02:36 30° 94° (E) 23:06:40 435.000
DELFI C3 24 Jun 23:03:24 23:06:44 26° 266° (W) 23:10:06 145.870
LO-87 24 Jun 23:05:49 23:09:11 43° 70° (ENE) 23:12:38 145.935 - 145.965
PRISM 24 Jun 23:06:13 23:09:57 33° 97° (E) 23:13:41 437.425
O/OREOS (USA 219) 24 Jun 23:15:00 23:19:33 83° 118° (ESE) 23:24:06 437.305
SO-50 24 Jun 23:22:39 23:27:13 85° 227° (SW) 23:31:46 436.795
ESTCUBE 1 24 Jun 23:28:08 23:32:30 52° 69° (ENE) 23:36:53 437.505/2401.250
VELOX 1 24 Jun 23:34:36 23:37:50 21° 57° (ENE) 23:41:05 145.980
UNISAT 6 24 Jun 23:40:04 23:44:48 72° 104° (ESE) 23:49:24 437.425
BEESAT 2 24 Jun 23:41:48 23:45:49 77° 130° (SE) 23:49:53 435.950
PCSat 24 Jun 23:47:40 23:50:03 13° 257° (WSW) 23:52:25 145.827
FO-29 24 Jun 23:51:55 23:59:40 87° 288° (WNW) 00:07:34 435.910
AO-85 24 Jun 23:53:43 23:57:20 33° 328° (NNW) 00:00:57 145.980
DX 1 24 Jun 23:57:52 00:00:12 14° 53° (NE) 00:02:34 434.975-435.025
SPROUT 25 Jun 00:00:55 00:04:45 33° 64° (ENE) 00:08:36 437.525
AIST 2D 25 Jun 00:01:39 00:04:05 17° 91° (E) 00:06:30 435.315
NANOSAT C BR1 25 Jun 00:03:47 00:04:12 10° 84° (E) 00:04:38 145.865
RS-15 25 Jun 00:03:56 00:16:17 74° 322° (NW) 00:28:41 29.354- 29.394
YUBILEINY 25 Jun 00:11:00 00:19:41 59° 289° (WNW) 00:28:27 435.215
UKube-1 25 Jun 00:16:28 00:18:55 15° 54° (NE) 00:21:23 .
BEESAT 3 25 Jun 00:23:01 00:26:39 31° 329° (NNW) 00:30:19 437.485
M-CUBED/EXP-1 PRIME 25 Jun 00:28:34 00:31:48 33° 300° (WNW) 00:35:14 437.505
NO-84 25 Jun 00:30:49 00:34:55 67° 155° (SSE) 00:39:16 435.350 FM
50 SAT 25 Jun 00:33:14 00:36:07 26° 65° (ENE) 00:39:00 437.505
TIGRISAT 25 Jun 00:34:58 00:39:26 44° 293° (WNW) 00:43:49 435.000
POLYITAN 1 25 Jun 00:38:16 00:41:46 23° 92° (E) 00:45:13 437.675
LO-87 25 Jun 00:40:14 00:42:51 19° 268° (W) 00:45:30 145.935 - 145.965
PRISM 25 Jun 00:41:33 00:45:13 32° 296° (WNW) 00:48:53 437.425
QB50P2 25 Jun 00:48:50 00:52:41 31° 95° (E) 00:56:29 145.880/145.840
O/OREOS (USA 219) 25 Jun 00:56:02 00:59:32 21° 320° (NW) 01:03:03 437.305
SO-50 25 Jun 01:04:13 01:07:02 16° 247° (WSW) 01:09:52 436.795
ESTCUBE 1 25 Jun 01:05:57 01:09:36 24° 268° (W) 01:13:16 437.505/2401.250
BUGSAT 1 25 Jun 01:07:20 01:09:29 13° 87° (E) 01:11:37 437.445
VELOX 1 25 Jun 01:09:32 01:13:53 66° 257° (WSW) 01:18:17 145.980
EO-79 25 Jun 01:13:27 01:17:38 48° 100° (E) 01:21:46 145.935-145.965
UNISAT 6 25 Jun 01:17:32 01:21:01 21° 303° (WNW) 01:24:28 437.425
BEESAT 2 25 Jun 01:20:29 01:23:59 27° 333° (NNW) 01:27:31 435.950
BEESAT 25 Jun 01:26:55 01:28:34 12° 47° (NE) 01:30:14 436.000
DUCHIFAT 1 25 Jun 01:28:20 01:32:33 55° 101° (E) 01:36:43 145.980
DX 1 25 Jun 01:31:24 01:35:44 81° 71° (ENE) 01:40:05 434.975-435.025
AIST 2D 25 Jun 01:34:09 01:37:33 45° 289° (WNW) 01:40:54 435.315
AO-85 25 Jun 01:36:15 01:38:49 16° 352° (N) 01:41:24 145.980
NANOSAT C BR1 25 Jun 01:36:26 01:40:44 72° 104° (ESE) 01:44:58 145.865
SPROUT 25 Jun 01:36:42 01:40:38 35° 264° (W) 01:44:37 437.525
FO-29 25 Jun 01:37:36 01:43:51 29° 309° (NW) 01:50:17 435.910
UKube-1 25 Jun 01:50:01 01:54:20 86° 74° (ENE) 01:58:40 .
BEESAT 3 25 Jun 02:02:42 02:05:21 16° 353° (N) 02:08:00 437.485
Oscar 19 25 Jun 02:04:17 02:08:10 21° 90° (E) 02:12:02 437.125/150
50 SAT 25 Jun 02:05:55 02:08:52 28° 264° (W) 02:11:51 437.505
NO-84 25 Jun 02:08:21 02:12:37 70° 354° (N) 02:17:01 435.350 FM
YUBILEINY 25 Jun 02:12:53 02:18:50 19° 316° (NW) 02:24:49 435.215
POLYITAN 1 25 Jun 02:13:37 02:17:48 49° 292° (WNW) 02:21:55 437.675
RS-15 25 Jun 02:18:59 02:30:56 50° 353° (N) 02:42:41 29.354- 29.394
QB50P2 25 Jun 02:24:34 02:28:32 37° 294° (WNW) 02:32:28 145.880/145.840
MOZHAYETS 4 25 Jun 02:38:26 02:42:09 24° 59° (ENE) 02:45:52
BUGSAT 1 25 Jun 02:41:09 02:45:27 87° 285° (WNW) 02:49:43 437.445
EO-79 25 Jun 02:49:38 02:53:11 25° 299° (WNW) 02:56:41 145.935-145.965
ITUPSAT 1 25 Jun 02:50:24 02:54:57 44° 65° (ENE) 02:59:31 437.325
Gurwin Techsat 1B 25 Jun 02:51:44 02:56:34 34° 95° (E) 03:01:23 435.225
BEESAT 2 25 Jun 03:00:20 03:02:57 16° 356° (N) 03:05:35 435.950
BEESAT 25 Jun 03:00:42 03:05:22 53° 67° (ENE) 03:10:03 436.000
DUCHIFAT 1 25 Jun 03:04:34 03:07:55 23° 300° (WNW) 03:11:15 145.980
DX 1 25 Jun 03:10:03 03:12:31 15° 272° (W) 03:14:59 434.975-435.025
NANOSAT C BR1 25 Jun 03:13:02 03:15:59 18° 303° (WNW) 03:18:55 145.865
AO-85 25 Jun 03:17:38 03:20:34 19° 17° (NNE) 03:23:34 145.980
CUBESAT XI-V 25 Jun 03:19:00 03:21:36 15° 53° (NE) 03:24:13 437.345
AO-7 25 Jun 03:19:24 03:24:04 16° 81° (E) 03:28:43 .
FO-29 25 Jun 03:25:00 03:26:35 11° 332° (NNW) 03:28:11 435.910
UKube-1 25 Jun 03:28:45 03:30:58 14° 273° (W) 03:33:13 .
BEESAT 3 25 Jun 03:41:19 03:44:18 19° 16° (NNE) 03:47:16 437.485
Oscar 19 25 Jun 03:42:54 03:48:01 71° 290° (WNW) 03:53:07 437.125/150
NO-84 25 Jun 03:46:05 03:50:28 85° 17° (NNE) 03:54:53 435.350 FM
MOZHAYETS 4 25 Jun 04:14:25 04:19:00 58° 259° (W) 04:23:36
KKS-1 25 Jun 04:16:21 04:20:12 30° 62° (ENE) 04:24:06 437.445
BUGSAT 1 25 Jun 04:17:47 04:20:11 15° 306° (NW) 04:22:36 437.445
ITAMSAT 1 25 Jun 04:19:07 04:23:41 29° 94° (E) 04:28:12 435.822/435.867
ITUPSAT 1 25 Jun 04:28:37 04:32:54 32° 265° (W) 04:37:14 437.325
Gurwin Techsat 1B 25 Jun 04:31:36 04:36:42 47° 295° (WNW) 04:41:46 435.225
RS-15 25 Jun 04:33:55 04:46:09 59° 26° (NNE) 04:57:55 29.354- 29.394
BEESAT 2 25 Jun 04:38:51 04:42:03 21° 20° (NNE) 04:45:14 435.950
BEESAT 25 Jun 04:39:26 04:43:26 26° 267° (W) 04:47:27 436.000
STARS 25 Jun 04:47:51 04:51:36 28° 61° (ENE) 04:55:22 437.465
CUBESAT XI-V 25 Jun 04:53:38 04:58:16 78° 74° (ENE) 05:02:55 437.345
AO-85 25 Jun 04:57:47 05:01:44 54° 40° (NE) 05:05:52 145.980
AO-7 25 Jun 05:10:23 05:18:43 61° 104° (ESE) 05:26:59 .
BEESAT 3 25 Jun 05:18:46 05:22:44 50° 39° (NE) 05:26:38 437.485
Oscar 19 25 Jun 05:23:31 05:26:31 16° 310° (NW) 05:29:31 437.125/150
NO-84 25 Jun 05:23:49 05:27:54 38° 216° (SW) 05:31:55 435.350 FM
DOVE 4 25 Jun 05:50:18 05:52:58 15° 86° (E) 05:55:42 437.250
KKS-1 25 Jun 05:52:27 05:56:39 42° 261° (W) 06:00:55 437.445
ITAMSAT 1 25 Jun 05:58:18 06:03:26 54° 294° (WNW) 06:08:31 435.822/435.867
O/OREOS (USA 219) 25 Jun 06:00:58 06:04:02 18° 37° (NE) 06:07:05 437.305
Gurwin Techsat 1B 25 Jun 06:13:37 06:15:28 12° 316° (NW) 06:17:19 435.225
BEESAT 2 25 Jun 06:16:27 06:20:31 64° 42° (NE) 06:24:34 435.950
YUBILEINY 25 Jun 06:21:03 06:23:33 11° 27° (NNE) 06:26:03 435.215
STARS 25 Jun 06:23:34 06:27:47 44° 261° (W) 06:32:02 437.465
XW-2C 25 Jun 06:31:21 06:32:53 12° 87° (E) 06:34:24 145.795 - 145.815
CUBESAT XI-V 25 Jun 06:33:15 06:36:14 17° 272° (W) 06:39:12 437.345
AO-85 25 Jun 06:38:28 06:41:57 28° 239° (WSW) 06:45:35 145.980
KAITUO 1B 25 Jun 06:46:27 06:48:21 13° 88° (E) 06:50:14 145.475/437.950
RS-15 25 Jun 06:47:13 06:59:24 73° 235° (SW) 07:11:01 29.354- 29.394
STRAND 1 25 Jun 06:52:57 06:57:35 35° 62° (ENE) 07:02:14 437.568
BEESAT 3 25 Jun 06:56:38 07:00:09 29° 240° (WSW) 07:03:37 437.485
CUTE-I 25 Jun 06:58:16 07:02:37 24° 91° (E) 07:06:58 437.470
AO-7 25 Jun 07:03:29 07:11:18 46° 307° (NW) 07:19:06 .
NUDT-PHONESAT 25 Jun 07:21:52 07:25:10 29° 95° (E) 07:28:25 437.300
DOVE 4 25 Jun 07:26:30 07:31:19 84° 106° (ESE) 07:36:24 437.250
XW-2F 25 Jun 07:35:44 07:39:25 49° 100° (E) 07:43:03 145.980 - 146.000
XW-2D 25 Jun 07:39:21 07:43:07 58° 102° (ESE) 07:46:49 145.860 - 145.880
ITAMSAT 1 25 Jun 07:39:30 07:41:51 13° 314° (NW) 07:44:12 435.822/435.867
O/OREOS (USA 219) 25 Jun 07:39:44 07:44:15 75° 60° (ENE) 07:48:43 437.305
HO-68 25 Jun 07:43:29 07:48:58 23° 87° (E) 07:54:24 435.675
LilacSat-2 25 Jun 07:47:03 07:50:52 72° 103° (ESE) 07:54:38 437.200
XW-2B 25 Jun 07:48:19 07:52:08 70° 103° (ESE) 07:55:52 145.730 - 145.750
BEESAT 2 25 Jun 07:54:44 07:57:57 23° 242° (WSW) 08:01:08 435.950
XW-2C 25 Jun 08:03:48 08:07:37 80° 287° (WNW) 08:11:23 145.795 - 145.815
SEEDS 25 Jun 08:12:13 08:15:01 17° 89° (E) 08:17:49 437.485
M-CUBED/EXP-1 PRIME 25 Jun 08:13:34 08:15:15 13° 51° (NE) 08:16:56 437.505
YUBILEINY 25 Jun 08:16:27 08:24:12 32° 57° (ENE) 08:31:52 435.215
XW-2A 25 Jun 08:18:59 08:21:29 19° 92° (E) 08:23:57 145.665 - 145.685
KAITUO 1B 25 Jun 08:19:06 08:22:50 69° 287° (WNW) 08:26:31 145.475/437.950
FO-29 25 Jun 08:27:19 08:32:24 25° 48° (NE) 08:37:55 435.910
CUTE 1.7 + AOD 2 25 Jun 08:28:10 08:32:03 34° 96° (E) 08:35:54 437.475
TIGRISAT 25 Jun 08:29:58 08:31:20 11° 48° (NE) 08:32:43 435.000
STRAND 1 25 Jun 08:31:45 08:36:40 45° 261° (W) 08:41:39 437.568
CUBEBUG 2 25 Jun 08:35:06 08:39:06 26° 92° (E) 08:43:00 437.445
CUTE-I 25 Jun 08:37:48 08:43:09 66° 291° (WNW) 08:48:29 437.470
NUDT-PHONESAT 25 Jun 08:55:46 08:59:04 30° 294° (WNW) 09:02:19 437.300
AO-7 25 Jun 08:56:52 09:02:09 19° 332° (NNW) 09:07:26 .
Oscar 11 25 Jun 09:00:04 09:01:35 12° 84° (E) 09:03:06 .
RS-15 25 Jun 09:00:50 09:09:43 25° 261° (W) 09:18:21 29.354- 29.394
AAUSAT CUBESAT 2 25 Jun 09:03:56 09:07:27 27° 93° (E) 09:10:57 437.432
DOVE 4 25 Jun 09:05:09 09:08:30 19° 303° (WNW) 09:11:58 437.250
ZACube-1 25 Jun 09:05:55 09:09:08 19° 88° (E) 09:12:18 437.345
UNISAT 6 25 Jun 09:09:13 09:12:48 22° 58° (ENE) 09:16:26 437.425
UWE-3 25 Jun 09:09:32 09:13:44 32° 94° (E) 09:17:50 435.000/436.395/437.385
XW-2F 25 Jun 09:10:29 09:13:16 20° 299° (WNW) 09:16:02 145.980 - 146.000
XW-2D 25 Jun 09:14:21 09:16:56 18° 300° (WNW) 09:19:30 145.860 - 145.880
O/OREOS (USA 219) 25 Jun 09:20:10 09:23:07 17° 259° (W) 09:26:03 437.305
LilacSat-2 25 Jun 09:22:25 09:24:41 15° 302° (WNW) 09:26:55 437.200
XW-2B 25 Jun 09:23:34 09:25:51 16° 302° (WNW) 09:28:08 145.730 - 145.750
HO-68 25 Jun 09:30:26 09:37:41 88° 104° (ESE) 09:44:53 435.675
Tancredo 1 25 Jun 09:39:04 09:41:13 18° 147° (SSE) 09:43:22 437.200
XW-2C 25 Jun 09:39:51 09:41:10 12° 305° (NW) 09:42:29 145.795 - 145.815
M-CUBED/EXP-1 PRIME 25 Jun 09:46:03 09:49:19 70° 251° (WSW) 09:52:36 437.505
SEEDS 25 Jun 09:47:00 09:51:09 64° 288° (WNW) 09:55:15 437.485
XW-2A 25 Jun 09:51:09 09:54:25 40° 291° (WNW) 09:57:37 145.665 - 145.685
ISS 25 Jun 09:54:19 09:56:23 16° 144° (SE) 09:58:27 437.550
PRISM 25 Jun 10:01:00 10:04:57 55° 70° (ENE) 10:08:57 437.425
TIGRISAT 25 Jun 10:02:31 10:07:01 53° 69° (ENE) 10:11:37 435.000
CUTE 1.7 + AOD 2 25 Jun 10:04:06 10:07:52 32° 295° (WNW) 10:11:37 437.475
AO-73 25 Jun 10:06:29 10:10:57 57° 100° (E) 10:15:17 145.935
FO-29 25 Jun 10:10:09 10:16:27 83° 70° (ENE) 10:23:38 435.910
CUBEBUG 2 25 Jun 10:11:21 10:15:59 52° 291° (WNW) 10:20:30 437.445
YUBILEINY 25 Jun 10:13:12 10:22:05 82° 262° (W) 10:30:53 435.215
CUTE-I 25 Jun 10:19:09 10:22:18 16° 312° (NW) 10:25:26 437.470
DELFI C3 25 Jun 10:33:35 10:36:54 25° 94° (E) 10:40:12 145.870
Oscar 11 25 Jun 10:34:07 10:38:28 81° 104° (ESE) 10:42:47 .
EO-79 25 Jun 10:38:22 10:40:32 14° 53° (NE) 10:42:42 145.935-145.965
AAUSAT CUBESAT 2 25 Jun 10:39:11 10:43:02 39° 293° (WNW) 10:46:52 437.432
AIST 2D 25 Jun 10:41:56 10:44:28 19° 62° (ENE) 10:47:00 435.315
